Location: ??????
(55.6500°N, 37.8000°E)
Time: 21:18:54
(UTC+00:00)

Envisat - Visible Passes

Search period start: 12 July 2024 00:00
Search period end: 22 July 2024 00:00
Orbit: 762 x 764 km, 98.3° (Epoch: 12 July)

Date Brightness Start Highest point End Pass type
(mag) Time Alt. Az. Time Alt. Az. Time Alt. Az.
12 Jul 4.6 00:03:59 10° NNE 00:08:30 31° E 00:13:01 10° SSE visible
12 Jul 5.4 23:27:21 10° NE 23:30:40 17° E 23:33:58 10° SE visible
14 Jul 4.9 23:50:59 10° NE 23:55:12 25° E 23:59:23 10° SSE visible
15 Jul 5.5 23:14:43 10° NE 23:17:17 14° E 23:19:50 10° ESE visible
17 Jul 4.3 00:14:53 10° NNE 00:19:38 38° E 00:24:21 10° SSE visible
17 Jul 5.2 23:38:03 10° NE 23:41:51 21° E 23:45:38 10° SE visible
18 Jul 5.7 23:02:38 10° ENE 23:03:52 11° E 23:05:06 10° E visible
20 Jul 4.6 00:01:50 10° NNE 00:06:20 31° E 00:10:48 10° SSE visible
20 Jul 5.4 23:25:15 10° NE 23:28:29 17° E 23:31:43 10° SE visible
